Location: Schoharie (historical)
(38.4214°N, 99.8251°W)
Time: 06:02:44
(UTC+00:00)

Daily predictions for brighter satellites

Satellite Brightness Start Highest point End
(mag) Time Altitude Azimuth Time Altitude Azimuth Time Altitude Azimuth
Cosmos 1937 Rocket 3.7 12:01:34 13° NNW 12:06:20 70° ENE 12:11:31 10° SSE
Cosmos 1464 Rocket 3.8 12:01:11 10° SSW 12:07:17 71° W 12:13:26 10° N
USA 276 3.9 12:09:49 22° S 12:09:49 22° S 12:11:24 10° SSE
Cosmos 1455 Rocket 3.0 12:05:48 10° SSW 12:10:03 53° W 12:14:19 10° N
GEOS 3 Rocket 3.9 12:06:28 10° SE 12:11:46 69° NE 12:16:02 17° NNW
Cosmos 1072 Rocket 4.4 12:06:10 10° SSW 12:12:15 59° W 12:18:28 10° N
Envisat 3.7 12:07:31 10° NNE 12:12:32 56° E 12:17:29 10° S
ERS-2 1.9 12:10:54 10° SSE 12:14:32 84° WSW 12:16:23 28° NNW
SKYMED 2 3.5 12:10:20 10° S 12:14:37 61° W 12:17:01 25° NNW
ATLAS CENTAUR R/B 3.1 12:13:31 10° S 12:16:48 29° ESE 12:20:01 10° NE
Cosmos 1689 Rocket 2.6 12:14:41 10° SSE 12:17:33 57° ENE 12:19:13 22° N
Meteor PRIRODA 3.5 12:15:17 10° N 12:18:52 61° WNW 12:22:25 10° SSW
Cosmos 1953 2.1 12:14:54 10° SSW 12:18:52 72° W 12:22:51 10° N
COSMOS 2428 3.5 12:20:32 28° WNW 12:20:41 28° WNW 12:25:34 10° N
BREEZE M DEB (TANK) 1.3 12:20:56 65° ENE 12:20:56 65° ENE 12:22:54 10° ESE
Cosmos 1908 3.2 12:18:46 10° S 12:22:33 78° E 12:26:22 10° N
CZ-4B R/B 3.1 12:22:02 10° SSW 12:23:28 20° SW 12:23:28 20° SW
Cosmos 44 Rocket 3.6 12:22:00 15° NNW 12:26:21 76° ENE 12:31:31 10° SE
deb Chang Zheng 4 3.9 12:24:13 10° N 12:28:11 39° WNW 12:32:07 10° SW
Cosmos 1980 3.7 12:23:22 10° SW 12:28:56 59° WNW 12:34:32 10° NNE
USA 307 4.0 12:28:54 10° SSW 12:32:55 45° SE 12:36:58 10° ENE
MOS 1 Rocket 3.4 12:28:18 10° S 12:33:20 59° W 12:38:06 10° NNW
Okean O Rocket 3.8 12:30:41 10° NE 12:34:29 29° E 12:38:15 10° SSE
Cosmos 540 Rocket 3.6 12:29:56 10° SW 12:34:52 49° WNW 12:39:50 10° N
CZ-2C R/B 2.2 12:34:12 16° SW 12:37:09 42° S 12:40:52 10° E
PSLV R/B 3.9 12:33:58 10° S 12:37:59 61° WSW 12:42:06 10° NNW
Cosmos 1461 4.2 12:37:46 23° WNW 12:38:47 25° NW 12:42:45 10° N
Cosmos 1092 Rocket 4.3 12:32:52 10° N 12:39:01 71° E 12:45:11 10° SSE
BREEZE-M (TANK) 3.0 12:40:03 19° N 12:40:47 23° NNE 12:42:28 10° E
USA 308 3.6 12:37:30 10° SSW 12:41:37 54° SE 12:45:45 10° NE
USA 305 3.5 12:37:54 10° SSW 12:42:04 59° SE 12:46:15 10° NE
Cosmos 2034 Rocket 4.2 12:38:47 10° SSW 12:44:56 51° W 12:51:08 10° N
Cosmos 1602 Rocket 3.6 12:41:22 10° N 12:45:52 84° E 12:50:19 10° S
OAO 2 Rocket 3.6 12:43:17 17° W 12:46:54 56° S 12:51:43 10° ESE
SL-8 R/B 3.8 12:44:31 18° NW 12:48:10 74° NNE 12:52:58 10° ESE
SMAP 3.6 12:44:16 10° NNE 12:48:53 62° E 12:53:28 10° S
CZ-4B DEB 4.3 12:43:23 10° NNE 12:48:58 89° E 12:54:32 10° SSW
Spot 2 3.9 12:45:34 10° NNE 12:49:38 83° ESE 12:53:42 10° SSW
USA 306 3.1 12:49:39 10° SW 12:53:53 75° SE 12:58:08 10° NE
Nadezhda 4 Rocket 4.1 12:49:44 10° NNW 12:55:35 50° W 13:01:26 10° SSW
Cosmos 1340 2.6 12:52:07 10° NNW 12:55:50 65° W 12:59:33 10° S
SWAS 4.5 12:54:55 10° SW 12:59:05 57° WNW 13:03:19 10° NNE
SAR-Lupe-4 4.5 12:56:22 10° SSW 12:59:29 28° W 13:02:38 10° NW
Cosmos 1634 Rocket 4.0 12:54:41 10° S 13:00:50 85° W 13:07:03 10° N
Cosmos 1703 3.4 12:57:47 10° NNW 13:01:34 49° W 13:05:20 10° SSW
COSMO-SKYMED 1 4.1 13:00:04 10° SW 13:02:57 17° W 13:05:40 11° NW
NOSS 3-2 (A) 3.3 12:58:04 10° SSW 13:03:34 86° WNW 13:09:51 10° NNE
CZ-4B R/B 4.2 13:01:58 10° NNW 13:04:07 15° WNW 13:06:18 10° WSW
Cosmos 1346 Rocket 3.3 13:04:42 10° N 13:08:38 63° E 13:12:35 10° SSE
ATLAS 5 CENTAUR R/B 2.8 13:06:56 13° WNW 13:09:18 38° SW 13:15:59 10° SSE
Cosmos 841 Rocket 4.4 13:05:13 10° WSW 13:09:28 26° WNW 13:13:45 10° N
H-2A R/B 4.2 13:10:04 10° NNW 13:12:29 17° WNW 13:14:55 10° WSW
NOSS 3-2 (C) 3.8 13:07:54 10° SSW 13:13:18 66° ESE 13:19:25 10° NE
Lacrosse 5 rocket 1.3 13:10:34 10° NW 13:14:24 70° NE 13:18:02 10° SE
Lacrosse 4 Rocket 1.7 13:11:48 10° SW 13:15:51 47° WNW 13:20:02 10° NNE
Cosmos 1939 Rocket 3.5 13:16:37 10° NNE 13:20:30 60° E 13:24:19 10° S
Cosmos 2098 Rocket 3.6 13:18:40 10° N 13:24:46 80° W 13:29:33 10° S
Cosmos 1953 Rocket 4.4 13:20:32 10° N 13:24:48 54° E 13:29:02 10° SSE
Meteor 1-11 4.2 13:19:43 10° NNW 13:25:15 68° W 13:30:47 10° S
Cosmos 2298 Rocket 4.1 13:21:02 10° NNW 13:26:22 79° WSW 13:31:41 10° SSE
Cosmos 2369 Rocket 4.1 13:22:40 10° N 13:27:24 27° ENE 13:32:06 10° ESE
SL-16 R/B 2.3 13:22:04 10° SW 13:27:37 59° WNW 13:33:14 10° NNE
